This demonstration page uses our WeatherBlox Daily Observations layout. Learn more.

Left ArrowRight Arrow

Hourly Observations for July 18, 2017

Temp ( °F °C ) Dew Point ( °F °C ) Humidity (%) Winds ( mph kmh ) Pressure ( in mb ) Visibility ( mi km ) Precip ( " mm )
12:53 am 00:53 Clear 77 25 52 11.1 42 42 N 6 9 29.78 1008 10 16 0.00 0.00
1:53 am 01:53 Clear 73 22.8 53 11.7 50 50 NNE 3 6 29.79 1009 10 16 0.00 0.00
3:53 am 03:53 Clear 71 21.7 51 10.6 49 49 NNE 3 6 29.81 1010 10 16 0.00 0.00
4:53 am 04:53 Clear 67 19.4 52 11.1 59 59 NNE 5 7 29.82 1010 10 16 0.00 0.00
5:53 am 05:53 Clear 67 19.4 52 11.1 59 59 Calm 29.84 1011 10 16 0.00 0.00
6:53 am 06:53 Sunny 68 20 53 11.7 59 59 NNE 3 6 29.86 1011 10 16 0.00 0.00
7:53 am 07:53 Sunny 75 23.9 50 10 41 41 Calm 29.88 1012 10 16 0.00 0.00
8:53 am 08:53 Sunny 78 25.6 47 8.3 33 33 SW 5 7 29.89 1012 10 16 0.00 0.00
9:53 am 09:53 Sunny 82 27.8 47 8.3 29 29 N 5 7 29.90 1013 10 16 0.00 0.00
10:53 am 10:53 Sunny 86 30 40 4.4 20 20 SSW 8 13 29.90 1013 10 16 0.00 0.00
11:53 am 11:53 Sunny 90 32.2 37 2.8 15 15 S 10 17 29.89 1012 10 16 0.00 0.00
12:53 pm 12:53 Sunny 91 32.8 39 3.9 16 16 S 8 13 29.89 1012 10 16 0.00 0.00
1:53 pm 13:53 Sunny 94 34.4 25 -3.9 8 8 S 16 26 29.89 1012 10 16 0.00 0.00
2:53 pm 14:53 Sunny 94 34.4 26 -3.3 9 9 S 17 28 29.88 1012 10 16 0.00 0.00
3:53 pm 15:53 Sunny 94 34.4 24 -4.4 8 8 S 14 22 29.88 1012 10 16 0.00 0.00
4:53 pm 16:53 Sunny 95 35 23 -5 7 7 S 14 22 29.87 1012 10 16 0.00 0.00
5:53 pm 17:53 Sunny 93 33.9 26 -3.3 9 9 S 14 22 29.87 1011 10 16 0.00 0.00
6:53 pm 18:53 Sunny 93 33.9 33 0.6 12 12 S 8 13 29.86 1011 10 16 0.00 0.00
7:53 pm 19:53 Sunny 89 31.7 46 7.8 23 23 SSE 8 13 29.87 1012 10 16 0.00 0.00
8:53 pm 20:53 Clear 87 30.6 47 8.3 25 25 SSW 6 9 29.88 1012 10 16 0.00 0.00
9:53 pm 21:53 Clear 79 26.1 48 8.9 34 34 NE 3 6 29.90 1012 10 16 0.00 0.00
10:53 pm 22:53 Clear 77 25 47 8.3 35 35 Calm 29.91 1013 10 16 0.00 0.00
11:53 pm 23:53 Clear 74 23.3 45 7.2 36 36 NNE 3 6 29.91 1013 10 16 0.00 0.00

Powered by AerisWeather